Ad Dammam, Saudi Arabia

1:56 PM +03 on August 24, 2017 (GMT +0300)
Ad Dammam

Weather History for 40416 - May, 2013

Change the Weather History Date:

Monday, May 6, 2013

  Actual Average Record
Temperature  
Mean Temperature 84 °F -  
Max Temperature 95 °F 101 °F - ()
Min Temperature 73 °F 77 °F - ()
Cooling Degree Days 19    
Growing Degree Days 34 (Base 50)    
Moisture  
Dew Point 56 °F    
Average Humidity 41    
Maximum Humidity 65    
Minimum Humidity 8    
Precipitation  
Precipitation 0.00 in 0.00 in - ()
Sea Level Pressure  
Sea Level Pressure 29.75 in    
Wind  
Wind Speed 6 mph ()    
Max Wind Speed 18 mph    
Max Gust Speed -    
Visibility 6.0 miles    
Events      
T = Trace of Precipitation, MM = Missing Value Source: Averaged Metar Reports

Daily Weather History Graph

Daily Weather History Graph

Search for Another Location

Airport or City:

Trip Planner

Search our weather history database for the weather conditions in past years. The results will help you decide how hot, cold, wet, or windy it might be!

Date:

Astronomy

May. 06, 2013 Rise Set
Actual Time 4:58 AM +03 6:13 PM +03
Civil Twilight 4:33 AM +03 6:38 PM +03
Nautical Twilight 4:04 AM +03 7:07 PM +03
Astronomical Twilight 3:34 AM +03 7:38 PM +03
Moon 2:27 AM +03 (5/6) 3:07 PM +03 (5/6)
Length of Visible Light 14h 04m
Length of Day
13h 15m
Waning Crescent, 13% of the Moon is Illuminated
May 6
Waning Crescent
May 10
New
May 18
First Quarter
May 25
Full
May 31
Last Quarter

Hourly Weather History & Observations

Time (+03) Temp. Heat Index Dew Point Humidity Pressure Visibility Wind Dir Wind Speed Gust Speed Precip Events Conditions
12:00 AM 79 °F - 55 °F 34% 29.76 in 6 mi 2.3 mph - -  
12:00 AM 78.8 °F - 55.4 °F 44% 29.74 in - Variable 2.3 mph - N/A   Clear
1:00 AM 78.8 °F - 59.0 °F 51% 29.74 in - Variable 2.3 mph - N/A   Clear
2:00 AM 75.2 °F - 59.0 °F 57% 29.74 in - WSW 4.6 mph - N/A   Clear
3:00 AM 74 °F - 61 °F 54% 29.73 in 6 mi West 4.6 mph - -  
3:00 AM 75.2 °F - 60.8 °F 61% 29.71 in - West 4.6 mph - N/A   Clear
4:00 AM 75.2 °F - 60.8 °F 61% 29.74 in - WNW 4.6 mph - N/A   Clear
5:00 AM 73.4 °F - 59.0 °F 61% 29.74 in - WNW 4.6 mph - N/A   Clear
6:00 AM 74 °F - 61 °F 54% 29.77 in 6 mi West 4.6 mph - -   Mostly Cloudy
6:00 AM 75.2 °F - 60.8 °F 61% 29.77 in - West 4.6 mph - N/A   Clear
7:00 AM 78.8 °F - 62.6 °F 57% 29.77 in - Variable 2.3 mph - N/A   Clear
8:00 AM 84.2 °F 84.4 °F 60.8 °F 45% 29.80 in - West 3.5 mph - N/A   Clear
9:00 AM 88 °F - 48 °F 16% 29.81 in 6 mi NNW 5.8 mph - -  
9:00 AM 87.8 °F - 48.2 °F 25% 29.80 in - NNW 5.8 mph - N/A   Clear
10:00 AM 91.4 °F - 50.0 °F 24% 29.77 in - North 5.8 mph - N/A   Clear
11:00 AM 93.2 °F - 48.2 °F 21% 29.77 in - North 3.5 mph - N/A   Clear
12:00 PM 95 °F - 41 °F 8% 29.78 in 6 mi East 6.9 mph - -  
12:00 PM 95.0 °F - 41.0 °F 15% 29.77 in - East 6.9 mph - N/A   Clear
1:00 PM 95.0 °F - 42.8 °F 16% 29.74 in - NE 17.3 mph - N/A   Clear
2:00 PM 93.2 °F - 44.6 °F 19% 29.74 in - NE 18.4 mph - N/A   Clear
3:00 PM 91 °F - 46 °F 13% 29.74 in 6 mi North 17.3 mph - -  
3:00 PM 91.4 °F - 46.4 °F 21% 29.74 in - North 17.3 mph - N/A   Clear
4:00 PM 89.6 °F 87.7 °F 55.4 °F 31% 29.71 in - NE 17.3 mph - N/A   Clear
5:00 PM 86.0 °F 85.4 °F 59.0 °F 40% 29.71 in - NE 15.0 mph - N/A   Clear
6:00 PM 83 °F - 64 °F 44% 29.73 in 6 mi ENE 11.5 mph - -  
6:00 PM 84.2 °F 85.6 °F 64.4 °F 51% 29.71 in - ENE 11.5 mph - N/A   Clear
7:00 PM 80.6 °F 83.2 °F 68.0 °F 65% 29.74 in - East 10.4 mph - N/A   Clear
8:00 PM 80.6 °F 82.7 °F 66.2 °F 61% 29.74 in - East 8.1 mph - N/A   Clear
9:00 PM 80 °F - 63 °F 46% 29.76 in 6 mi East 9.2 mph - -  
9:00 PM 80.6 °F 81.8 °F 62.6 °F 54% 29.74 in - East 9.2 mph - N/A   Clear
10:00 PM 78.8 °F - 60.8 °F 54% 29.77 in - East 5.8 mph - N/A   Clear
11:00 PM 77.0 °F - 60.8 °F 57% 29.74 in - East 5.8 mph - N/A   Clear